This demonstration page uses our WeatherBlox Daily Observations layout. Learn more.

Left ArrowRight Arrow

41.55636, -103.73856

Hourly Observations for February 2, 2018

Temp ( °F °C ) Dew Point ( °F °C ) Humidity (%) Winds ( mph kmh ) Pressure ( in mb ) Visibility ( mi km ) Precip ( " mm )
12:53 am 00:53 Clear 25 -3.9 22 -5.6 88 88 E 7 11 30.29 1026 10 16 N/A
1:53 am 01:53 Clear 25 -3.9 21 -6.1 85 85 E 7 11 30.28 1025 10 16 N/A
2:53 am 02:53 Clear 24 -4.4 20 -6.7 84 84 E 7 11 30.27 1025 10 16 N/A
3:53 am 03:53 Clear 24 -4.4 19 -7.2 81 81 N N/A 30.27 1025 10 16 N/A
4:53 am 04:53 Clear 21 -6.1 19 -7.2 92 92 NNE 3 6 30.27 1025 10 16 N/A
5:53 am 05:53 Clear 19 -7.2 16 -8.9 88 88 N N/A 30.29 1026 10 16 N/A
6:53 am 06:53 Clear 20 -6.7 16 -8.9 85 85 N N/A 30.26 1025 10 16 N/A
7:53 am 07:53 Sunny 24 -4.4 21 -6.1 88 88 N 3 6 30.23 1024 10 16 N/A
8:53 am 08:53 Sunny 29 -1.7 24 -4.4 82 82 NW 3 6 30.20 1023 7 11 N/A
9:53 am 09:53 Sunny 32 undefined 25 -3.9 75 75 N N/A 30.19 1022 8 13 N/A
10:53 am 10:53 Sunny 33 0.6 25 -3.9 72 72 ESE 3 6 30.17 1022 10 16 N/A
11:53 am 11:53 Mostly Sunny 36 2.2 28 -2.2 73 73 E 6 9 30.13 1020 10 16 N/A
12:53 pm 12:53 Cloudy 41 5 30 -1.1 65 65 E 3 6 30.09 1019 10 16 N/A
1:53 pm 13:53 Cloudy 42 5.6 32 undefined 68 68 E 6 9 30.06 1018 10 16 N/A
2:53 pm 14:53 Cloudy 44 6.7 34 1.1 68 68 E 7 11 30.04 1017 10 16 N/A
3:53 pm 15:53 Sunny 46 7.8 35 1.7 66 66 E 5 7 30.01 1016 10 16 N/A
4:53 pm 16:53 Sunny 42 5.6 34 1.1 73 73 S 6 9 30.02 1017 10 16 N/A
5:53 pm 17:53 Clear 39 3.9 33 0.6 79 79 S 7 11 30.03 1017 10 16 N/A
6:53 pm 18:53 Clear 35 1.7 31 -0.6 85 85 N N/A 30.03 1017 10 16 N/A
7:53 pm 19:53 Clear 32 undefined 29 -1.7 88 88 ESE 5 7 30.02 1017 10 16 N/A
8:53 pm 20:53 Clear 32 undefined 30 -1.1 92 92 NNE 5 7 29.98 1015 10 16 N/A
9:53 pm 21:53 Clear 33 0.6 30 -1.1 89 89 NE 3 6 29.96 1015 10 16 N/A
10:53 pm 22:53 Clear 30 -1.1 28 -2.2 92 92 ENE 5 7 29.96 1015 10 16 N/A
11:53 pm 23:53 Clear 32 undefined 29 -1.7 88 88 N N/A 29.93 1013 10 16 N/A

Powered by AerisWeather